• In Österreich
  • Länderverzeichnis
  • Für 7 Tage
  • Wassertemperatur
  • Satellitenkarten
  • Wetterkarte
  • News
  • Widgets
  • user-avatar
    Anmelden

    Stündliche Wetter La Massana

    Heute, 23 September, Sonntag

    Zeit Temperatur Niederschläge Wind Luftdruck Luftfeuchtigkeit
    00:00 +10°C° 0 mm 2 m/S 617 mmHg 81%
    01:00 +10°C° 0 mm 2 m/S 617 mmHg 80%
    02:00 +10°C° 0 mm 2 m/S 617 mmHg 79%
    03:00 +10°C° 0 mm 2 m/S 617 mmHg 78%
    04:00 +11°C° 0 mm 1 m/S 617 mmHg 75%
    05:00 +11°C° 0 mm 1 m/S 617 mmHg 71%
    06:00 +11°C° 0 mm 1 m/S 617 mmHg 68%
    07:00 +13°C° 0 mm 1 m/S 618 mmHg 60%
    08:00 +16°C° 0 mm 1 m/S 619 mmHg 51%
    09:00 +20°C° 0 mm 1 m/S 620 mmHg 42%
    10:00 +21°C° 0 mm 1 m/S 621 mmHg 41%
    11:00 +22°C° 0 mm 1 m/S 621 mmHg 39%
    12:00 +23°C° 0 mm 1 m/S 621 mmHg 38%
    13:00 +23°C° 0 mm 2 m/S 621 mmHg 39%
    14:00 +23°C° 0 mm 2 m/S 620 mmHg 41%
    15:00 +21°C° 0 mm 2 m/S 620 mmHg 42%
    16:00 +19°C° 0 mm 2 m/S 619 mmHg 50%
    17:00 +17°C° 0 mm 2 m/S 618 mmHg 57%
    18:00 +15°C° 0 mm 2 m/S 618 mmHg 65%
    19:00 +14°C° 0 mm 2 m/S 618 mmHg 69%
    20:00 +13°C° 0 mm 2 m/S 618 mmHg 73%
    21:00 +12°C° 0 mm 2 m/S 618 mmHg 77%
    22:00 +12°C° 0 mm 2 m/S 617 mmHg 78%
    23:00 +10°C° 0 mm 2 m/S 617 mmHg 79%

    Morgen, 24 September, Montag

    Zeit Temperatur Niederschläge Wind Luftdruck Luftfeuchtigkeit
    00:00 +10°C° 0 mm 2 m/S 617 mmHg 79%
    01:00 +9°C° 0 mm 2 m/S 617 mmHg 77%
    02:00 +9°C° 0 mm 2 m/S 617 mmHg 75%
    03:00 +9°C° 0 mm 2 m/S 616 mmHg 72%
    04:00 +9°C° 0 mm 2 m/S 616 mmHg 76%
    05:00 +9°C° 0 mm 2 m/S 617 mmHg 79%
    06:00 +9°C° 0 mm 2 m/S 617 mmHg 83%
    07:00 +10°C° 0 mm 2 m/S 617 mmHg 79%
    08:00 +12°C° 0 mm 2 m/S 618 mmHg 76%
    09:00 +13°C° 0 mm 2 m/S 619 mmHg 72%
    10:00 +14°C° 0 mm 2 m/S 619 mmHg 69%
    11:00 +15°C° 0 mm 2 m/S 619 mmHg 66%
    12:00 +14°C° 0 mm 3 m/S 619 mmHg 63%
    13:00 +14°C° 0 mm 3 m/S 619 mmHg 61%
    14:00 +14°C° 0 mm 3 m/S 619 mmHg 60%
    15:00 +14°C° 0 mm 3 m/S 618 mmHg 58%
    16:00 +12°C° 0.1 mm 3 m/S 618 mmHg 64%
    17:00 +10°C° 0.1 mm 3 m/S 617 mmHg 69%
    18:00 +9°C° 0.1 mm 3 m/S 616 mmHg 75%
    19:00 +8°C° 0.1 mm 3 m/S 616 mmHg 74%
    20:00 +7°C° 0.1 mm 2 m/S 616 mmHg 74%
    21:00 +6°C° 0.1 mm 2 m/S 616 mmHg 73%
    22:00 +6°C° 0 mm 2 m/S 616 mmHg 71%
    23:00 +6°C° 0 mm 2 m/S 616 mmHg 70%

    übermorgen, 25 September, Dienstag

    Zeit Temperatur Niederschläge Wind Luftdruck Luftfeuchtigkeit
    00:00 +6°C° 0 mm 2 m/S 616 mmHg 68%
    01:00 +6°C° 0 mm 2 m/S 616 mmHg 70%
    02:00 +6°C° 0 mm 1 m/S 616 mmHg 71%
    03:00 +6°C° 0 mm 1 m/S 616 mmHg 73%
    04:00 +6°C° 0 mm 1 m/S 616 mmHg 75%
    05:00 +6°C° 0 mm 1 m/S 616 mmHg 77%
    06:00 +6°C° 0 mm 1 m/S 616 mmHg 80%
    07:00 +8°C° 0 mm 1 m/S 617 mmHg 76%
    08:00 +10°C° 0 mm 1 m/S 618 mmHg 72%
    09:00 +10°C° 0 mm 2 m/S 619 mmHg 68%
    10:00 +12°C° 0 mm 2 m/S 619 mmHg 64%
    11:00 +13°C° 0 mm 2 m/S 620 mmHg 61%
    12:00 +14°C° 0 mm 2 m/S 620 mmHg 57%
    13:00 +14°C° 0 mm 2 m/S 620 mmHg 57%
    14:00 +14°C° 0 mm 2 m/S 619 mmHg 58%
    15:00 +14°C° 0 mm 2 m/S 619 mmHg 58%
    16:00 +12°C° 0 mm 2 m/S 619 mmHg 64%
    17:00 +10°C° 0 mm 2 m/S 618 mmHg 70%
    18:00 +9°C° 0 mm 2 m/S 618 mmHg 76%
    19:00 +8°C° 0 mm 2 m/S 618 mmHg 79%
    20:00 +9°C° 0 mm 1 m/S 618 mmHg 82%
    21:00 +8°C° 0 mm 1 m/S 618 mmHg 85%
    22:00 +8°C° 0 mm 1 m/S 618 mmHg 85%
    23:00 +7°C° 0 mm 1 m/S 618 mmHg 86%

    26 September, Mittwoch

    Zeit Temperatur Niederschläge Wind Luftdruck Luftfeuchtigkeit
    00:00 +7°C° 0 mm 1 m/S 618 mmHg 86%
    01:00 +7°C° 0 mm 1 m/S 618 mmHg 85%
    02:00 +7°C° 0 mm 1 m/S 618 mmHg 85%
    03:00 +7°C° 0 mm 1 m/S 617 mmHg 84%
    04:00 +7°C° 0 mm 1 m/S 617 mmHg 83%
    05:00 +6°C° 0 mm 1 m/S 618 mmHg 82%
    06:00 +5°C° 0 mm 2 m/S 618 mmHg 81%
    07:00 +8°C° 0 mm 2 m/S 619 mmHg 73%
    08:00 +10°C° 0 mm 2 m/S 620 mmHg 65%
    09:00 +12°C° 0 mm 3 m/S 621 mmHg 57%
    10:00 +14°C° 0 mm 3 m/S 622 mmHg 54%
    11:00 +16°C° 0 mm 3 m/S 622 mmHg 51%
    12:00 +17°C° 0 mm 3 m/S 623 mmHg 48%
    13:00 +17°C° 0 mm 3 m/S 622 mmHg 49%
    14:00 +17°C° 0 mm 3 m/S 622 mmHg 50%
    15:00 +17°C° 0 mm 3 m/S 622 mmHg 52%
    16:00 +14°C° 0 mm 3 m/S 621 mmHg 61%
    17:00 +13°C° 0 mm 2 m/S 620 mmHg 70%
    18:00 +10°C° 0 mm 2 m/S 620 mmHg 79%
    19:00 +9°C° 0 mm 2 m/S 620 mmHg 81%
    20:00 +8°C° 0 mm 2 m/S 620 mmHg 83%
    21:00 +9°C° 0 mm 1 m/S 620 mmHg 86%
    22:00 +8°C° 0 mm 1 m/S 619 mmHg 85%
    23:00 +8°C° 0 mm 1 m/S 619 mmHg 84%

    27 September, Donnerstag

    Zeit Temperatur Niederschläge Wind Luftdruck Luftfeuchtigkeit
    00:00 +8°C° 0 mm 1 m/S 619 mmHg 84%
    01:00 +8°C° 0 mm 1 m/S 619 mmHg 82%
    02:00 +8°C° 0 mm 1 m/S 618 mmHg 80%
    03:00 +7°C° 0 mm 1 m/S 618 mmHg 79%
    04:00 +7°C° 0 mm 1 m/S 618 mmHg 79%
    05:00 +7°C° 0 mm 1 m/S 618 mmHg 79%
    06:00 +7°C° 0 mm 1 m/S 618 mmHg 79%
    07:00 +10°C° 0 mm 1 m/S 619 mmHg 70%
    08:00 +13°C° 0 mm 1 m/S 620 mmHg 61%
    09:00 +15°C° 0 mm 2 m/S 622 mmHg 53%
    10:00 +17°C° 0 mm 2 m/S 622 mmHg 49%
    11:00 +18°C° 0 mm 2 m/S 622 mmHg 46%
    12:00 +19°C° 0 mm 2 m/S 622 mmHg 42%
    13:00 +19°C° 0 mm 2 m/S 622 mmHg 43%
    14:00 +19°C° 0 mm 2 m/S 621 mmHg 44%
    15:00 +18°C° 0 mm 2 m/S 621 mmHg 45%
    16:00 +16°C° 0 mm 2 m/S 620 mmHg 55%
    17:00 +14°C° 0 mm 1 m/S 619 mmHg 64%
    18:00 +12°C° 0 mm 1 m/S 618 mmHg 74%
    19:00 +11°C° 0 mm 1 m/S 617 mmHg 76%
    20:00 +11°C° 0 mm 1 m/S 617 mmHg 78%
    21:00 +10°C° 0 mm 1 m/S 617 mmHg 80%
    22:00 +10°C° 0 mm 1 m/S 617 mmHg 79%
    23:00 +10°C° 0 mm 1 m/S 616 mmHg 79%

    28 September, Freitag

    Zeit Temperatur Niederschläge Wind Luftdruck Luftfeuchtigkeit
    00:00 +10°C° 0 mm 1 m/S 616 mmHg 78%
    01:00 +10°C° 0 mm 1 m/S 616 mmHg 78%
    02:00 +10°C° 0 mm 1 m/S 615 mmHg 77%
    03:00 +9°C° 0 mm 1 m/S 615 mmHg 77%
    04:00 +9°C° 0 mm 1 m/S 615 mmHg 77%
    05:00 +9°C° 0 mm 1 m/S 615 mmHg 78%
    06:00 +9°C° 0 mm 1 m/S 615 mmHg 78%
    07:00 +12°C° 0 mm 1 m/S 616 mmHg 70%
    08:00 +14°C° 0 mm 1 m/S 617 mmHg 62%
    09:00 +18°C° 0 mm 1 m/S 618 mmHg 53%
    10:00 +18°C° 0.1 mm 1 m/S 618 mmHg 52%
    11:00 +19°C° 0.1 mm 1 m/S 618 mmHg 52%
    12:00 +19°C° 0.1 mm 1 m/S 618 mmHg 51%
    13:00 +19°C° 0.5 mm 1 m/S 617 mmHg 55%
    14:00 +18°C° 0.5 mm 1 m/S 617 mmHg 59%
    15:00 +16°C° 0.5 mm 1 m/S 616 mmHg 62%
    16:00 +15°C° 0.6 mm 1 m/S 615 mmHg 67%
    17:00 +14°C° 0.6 mm 1 m/S 615 mmHg 71%
    18:00 +13°C° 0.6 mm 1 m/S 614 mmHg 75%
    19:00 +12°C° 0.3 mm 1 m/S 614 mmHg 77%
    20:00 +12°C° 0.3 mm 1 m/S 614 mmHg 79%
    21:00 +11°C° 0.3 mm 1 m/S 614 mmHg 82%
    22:00 +11°C° 0.1 mm 1 m/S 614 mmHg 83%
    23:00 +10°C° 0.1 mm 1 m/S 614 mmHg 84%
    Mehr zeigen